Thunderstorms From: 21-05-2018 15:00 Until: 22-05-2018 15:00 warning for: Thunderstorms Level: Yellow info button

Although rather usual in this region, locally or potentially dangerous phenomena are expected. (such as local winds, summer thunderstorms, rising streams or high waves) Be aware and pay attention to the latest weather updates, especially if you carry out activities exposed to weather or close to a stream or shoreline. 


Meteo18 Weather Cam more information Meteo18 Weather Cam


warning for Thunderstorms more information blitzortung!


Rain radar more information rain snow radar


Visit our other weather sites:

Template documentation
and downloads

And another site



Weather Underground History page Text

Daily Summary for February 9, 2017 Units:  Metric    English   Both
« Previous Day
Next Day »
Daily Weekly Monthly Yearly Custom
  High: Low: Average:
Temperature: -17.8 °C -17.6 °C -15.9 °C
Dew Point: -17.8 °C -18.5 °C -16.9 °C
Humidity: Humidity % 67 % 88 %
Wind Speed: 0 km/h 0 km/h 9.7 km/h
Wind Gust: 0 km/h - -
Wind:- - SSE
Pressure: 0 hPa 34496.6 hPa -
Precipitation: 0 mm    
Historical Graphs
 
 
Tabular Data for February 9, 2017
Time Temperature Dew Point Pressure Wind Wind Speed Wind Gust Humidity Rainfall Rate (Hourly)
-17.8 °C -17.8 °C 0 hPa Calm     Humidity % 0 mm
00:02 -15.7 °C -16.6 °C 34726.8 hPa North 12.9 km/h 18.2 km/h 89 % 0 mm
00:07 -15.8 °C -16.7 °C 34716.7 hPa NNW 5.1 km/h 18.2 km/h 89 % 0 mm
00:12 -15.8 °C -16.6 °C 34716.7 hPa NNE 7.7 km/h 18.2 km/h 90 % 0 mm
00:17 -15.8 °C -16.6 °C 34716.7 hPa NNW 10.3 km/h 12.9 km/h 90 % 0 mm
00:22 -15.7 °C -16.6 °C 34716.7 hPa NNW 15.6 km/h 20.8 km/h 90 % 0 mm
00:28 -15.7 °C -16.5 °C 34716.7 hPa NNE 7.7 km/h 20.8 km/h 90 % 0 mm
00:37 -15.6 °C -16.4 °C 34726.8 hPa NE 7.7 km/h 20.8 km/h 90 % 0 mm
00:42 -15.6 °C -16.4 °C 34726.8 hPa NNE 2.6 km/h 20.8 km/h 90 % 0 mm
00:47 -15.6 °C -16.4 °C 34726.8 hPa North 5.1 km/h 20.8 km/h 90 % 0 mm
00:52 -15.6 °C -16.4 °C 34726.8 hPa NNW 7.7 km/h 18.2 km/h 90 % 0 mm
00:57 -15.6 °C -16.4 °C 34726.8 hPa NE 5.1 km/h 15.6 km/h 90 % 0 mm
01:02 -15.6 °C -16.4 °C 34726.8 hPa Calm   15.6 km/h 90 % 0 mm
01:07 -15.6 °C -16.4 °C 34726.8 hPa North 7.7 km/h 15.6 km/h 90 % 0 mm
01:12 -15.6 °C -16.4 °C 34726.8 hPa Calm   15.6 km/h 90 % 0 mm
01:17 -15.6 °C -16.4 °C 34726.8 hPa NE 2.6 km/h 12.9 km/h 90 % 0 mm
01:22 -15.6 °C -16.4 °C 34716.7 hPa NNE 7.7 km/h 12.9 km/h 90 % 0 mm
01:27 -15.6 °C -16.4 °C 34716.7 hPa Calm   18.2 km/h 90 % 0 mm
01:32 -15.6 °C -16.4 °C 34716.7 hPa NNW 5.1 km/h 18.2 km/h 90 % 0 mm
01:37 -15.6 °C -16.4 °C 34716.7 hPa NNW 7.7 km/h 18.2 km/h 90 % 0 mm
01:42 -15.6 °C -16.4 °C 34716.7 hPa NE 2.6 km/h 15.6 km/h 90 % 0 mm
01:47 -15.6 °C -16.4 °C 34716.7 hPa Calm   15.6 km/h 90 % 0 mm
01:52 -15.7 °C -16.5 °C 34716.7 hPa Calm   15.6 km/h 90 % 0 mm
01:57 -15.7 °C -16.4 °C 34716.7 hPa NNW 7.7 km/h 15.6 km/h 91 % 0 mm
02:02 -15.7 °C -16.4 °C 34716.7 hPa NNW 10.3 km/h 15.6 km/h 91 % 0 mm
02:07 -15.7 °C -16.4 °C 34716.7 hPa NW 7.7 km/h 18.2 km/h 91 % 0 mm
02:17 -15.7 °C -16.4 °C 34716.7 hPa North 5.1 km/h 18.2 km/h 91 % 0 mm
02:22 -15.7 °C -16.4 °C 34716.7 hPa WNW 5.1 km/h 15.6 km/h 91 % 0 mm
02:27 -15.7 °C -16.4 °C 34716.7 hPa North 10.3 km/h 15.6 km/h 91 % 0 mm
02:32 -15.7 °C -16.4 °C 34716.7 hPa NNW 7.7 km/h 15.6 km/h 91 % 0 mm
02:37 -15.7 °C -16.4 °C 34716.7 hPa NW 7.7 km/h 15.6 km/h 92 % 0 mm
02:42 -15.7 °C -16.4 °C 34716.7 hPa NW 7.7 km/h 15.6 km/h 92 % 0 mm
02:47 -15.7 °C -16.4 °C 34716.7 hPa North 10.3 km/h 18.2 km/h 92 % 0 mm
02:52 -15.7 °C -16.4 °C 34716.7 hPa NNW 2.6 km/h 18.2 km/h 92 % 0 mm
02:57 -15.7 °C -16.4 °C 34716.7 hPa North 7.7 km/h 15.6 km/h 92 % 0 mm
03:02 -15.7 °C -16.4 °C 34716.7 hPa NNW 5.1 km/h 15.6 km/h 92 % 0 mm
03:07 -15.7 °C -16.4 °C 34716.7 hPa WNW 2.6 km/h 18.2 km/h 92 % 0 mm
03:12 -15.7 °C -16.4 °C 34716.7 hPa NNE 2.6 km/h 18.2 km/h 92 % 0 mm
03:17 -15.7 °C -16.4 °C 34716.7 hPa NNW 5.1 km/h 18.2 km/h 92 % 0 mm
03:22 -15.7 °C -16.4 °C 34716.7 hPa North 5.1 km/h 15.6 km/h 92 % 0 mm
03:27 -15.7 °C -16.4 °C 34703.1 hPa North 7.7 km/h 15.6 km/h 92 % 0 mm
03:32 -15.7 °C -16.4 °C 34703.1 hPa North 15.6 km/h 20.8 km/h 92 % 0 mm
03:37 -15.7 °C -16.4 °C 34703.1 hPa NNW 7.7 km/h 23.3 km/h 92 % 0 mm
03:42 -15.7 °C -16.4 °C 34703.1 hPa NNW 5.1 km/h 23.3 km/h 92 % 0 mm
03:47 -15.7 °C -16.4 °C 34703.1 hPa NNW 18.2 km/h 23.3 km/h 92 % 0 mm
03:52 -15.7 °C -16.4 °C 34703.1 hPa NNE 5.1 km/h 23.3 km/h 92 % 0 mm
03:57 -15.7 °C -16.4 °C 34703.1 hPa NNW 20.8 km/h 25.9 km/h 92 % 0 mm
04:02 -15.7 °C -16.4 °C 34703.1 hPa Calm   28.5 km/h 92 % 0 mm
04:07 -15.7 °C -16.4 °C 34703.1 hPa North 15.6 km/h 28.5 km/h 92 % 0 mm
04:12 -15.7 °C -16.4 °C 34693 hPa NNW 23.3 km/h 28.5 km/h 92 % 0 mm
04:17 -15.8 °C -16.4 °C 34693 hPa NNW 12.9 km/h 28.5 km/h 92 % 0 mm
04:22 -15.8 °C -16.3 °C 34693 hPa NNE 28.5 km/h 28.5 km/h 93 % 0 mm
04:27 -15.8 °C -16.3 °C 34693 hPa NW 12.9 km/h 36.2 km/h 93 % 0 mm
04:32 -15.8 °C -16.3 °C 34693 hPa North 18.2 km/h 36.2 km/h 93 % 0 mm
04:37 -15.8 °C -16.4 °C 34693 hPa North 28.5 km/h 36.2 km/h 93 % 0 mm
04:42 -15.8 °C -16.4 °C 34693 hPa North 15.6 km/h 33.6 km/h 93 % 0 mm
04:47 -15.8 °C -16.4 °C 34693 hPa NNW 10.3 km/h 33.6 km/h 93 % 0 mm
04:52 -15.9 °C -16.4 °C 34693 hPa NNW 23.3 km/h 33.6 km/h 93 % 0 mm
04:57 -15.9 °C -16.4 °C 34693 hPa NNW 15.6 km/h 31.1 km/h 94 % 0 mm
05:02 -15.9 °C -16.4 °C 34682.8 hPa NNW 10.3 km/h 31.1 km/h 94 % 0 mm
05:07 -15.9 °C -16.4 °C 34682.8 hPa North 12.9 km/h 31.1 km/h 94 % 0 mm
05:12 -15.9 °C -16.4 °C 34682.8 hPa NNW 7.7 km/h 31.1 km/h 94 % 0 mm
05:17 -15.9 °C -16.4 °C 34682.8 hPa NNE 10.3 km/h 31.1 km/h 94 % 0 mm
05:22 -16 °C -16.5 °C 34682.8 hPa NNW 12.9 km/h 25.9 km/h 94 % 0 mm
05:27 -16 °C -16.5 °C 34682.8 hPa NNE 18.2 km/h 20.8 km/h 94 % 0 mm
05:32 -16 °C -16.5 °C 34693 hPa NNW 12.9 km/h 33.6 km/h 94 % 0 mm
05:37 -16.1 °C -16.4 °C 34693 hPa NE 7.7 km/h 33.6 km/h 95 % 0 mm
05:42 -16.1 °C -16.4 °C 34693 hPa NNW 7.7 km/h 28.5 km/h 95 % 0 mm
05:47 -16.1 °C -16.4 °C 34693 hPa NW 7.7 km/h 25.9 km/h 95 % 0 mm
05:52 -16.1 °C -16.4 °C 34693 hPa North 7.7 km/h 20.8 km/h 95 % 0 mm
05:57 -16.1 °C -16.4 °C 34693 hPa NE 15.6 km/h 20.8 km/h 95 % 0 mm
06:02 -16.1 °C -16.5 °C 34693 hPa North 12.9 km/h 20.8 km/h 95 % 0 mm
06:07 -16.2 °C -16.6 °C 34682.8 hPa North 18.2 km/h 33.6 km/h 95 % 0 mm
06:12 -16.2 °C -16.5 °C 34682.8 hPa North 5.1 km/h 33.6 km/h 96 % 0 mm
06:17 -16.2 °C -16.5 °C 34682.8 hPa NW 10.3 km/h 33.6 km/h 96 % 0 mm
06:22 -16.2 °C -16.5 °C 34682.8 hPa NNW 12.9 km/h 33.6 km/h 96 % 0 mm
06:27 -16.2 °C -16.5 °C 34682.8 hPa North 10.3 km/h 23.3 km/h 96 % 0 mm
06:32 -16.2 °C -16.5 °C 34682.8 hPa NW 15.6 km/h 23.3 km/h 96 % 0 mm
06:37 -16.2 °C -16.5 °C 34682.8 hPa NNW 12.9 km/h 23.3 km/h 96 % 0 mm
06:42 -16.2 °C -16.6 °C 34682.8 hPa NE 10.3 km/h 23.3 km/h 96 % 0 mm
06:47 -16.2 °C -16.6 °C 34682.8 hPa North 12.9 km/h 23.3 km/h 96 % 0 mm
06:52 -16.2 °C -16.6 °C 34682.8 hPa SSE 2.6 km/h 31.1 km/h 96 % 0 mm
06:57 -16.2 °C -16.6 °C 34682.8 hPa North 12.9 km/h 31.1 km/h 96 % 0 mm
07:02 -16.2 °C -16.6 °C 34682.8 hPa WNW 5.1 km/h 31.1 km/h 96 % 0 mm
07:12 -16.2 °C -16.6 °C 34682.8 hPa NNE 15.6 km/h 23.3 km/h 96 % 0 mm
07:17 -16.2 °C -16.6 °C 34682.8 hPa NNW 18.2 km/h 25.9 km/h 96 % 0 mm
07:22 -16.3 °C -16.6 °C 34682.8 hPa NNW 15.6 km/h 33.6 km/h 96 % 0 mm
07:27 -16.3 °C -16.6 °C 34682.8 hPa NE 12.9 km/h 33.6 km/h 96 % 0 mm
07:32 -16.3 °C -16.6 °C 34682.8 hPa NNW 15.6 km/h 33.6 km/h 96 % 0 mm
07:37 -16.3 °C -16.5 °C 34682.8 hPa NNW 10.3 km/h 28.5 km/h 97 % 0 mm
07:42 -16.3 °C -16.5 °C 34682.8 hPa NW 10.3 km/h 28.5 km/h 97 % 0 mm
07:47 -16.3 °C -16.5 °C 34682.8 hPa NNW 12.9 km/h 31.1 km/h 97 % 0 mm
07:52 -16.3 °C -16.5 °C 34682.8 hPa NE 18.2 km/h 36.2 km/h 97 % 0 mm
07:57 -16.3 °C -16.5 °C 34682.8 hPa NNW 15.6 km/h 36.2 km/h 97 % 0 mm
08:02 -16.3 °C -16.5 °C 34682.8 hPa NW 15.6 km/h 36.2 km/h 97 % 0 mm
08:07 -16.3 °C -16.5 °C 34682.8 hPa North 25.9 km/h 25.9 km/h 97 % 0 mm
08:12 -16.3 °C -16.6 °C 34682.8 hPa NNE 20.8 km/h 28.5 km/h 97 % 0 mm
08:17 -16.3 °C -16.6 °C 34682.8 hPa North 18.2 km/h 28.5 km/h 97 % 0 mm
08:22 -16.3 °C -16.6 °C 34682.8 hPa NNE 7.7 km/h 25.9 km/h 97 % 0 mm
08:27 -16.3 °C -16.6 °C 34682.8 hPa NNE 20.8 km/h 23.3 km/h 97 % 0 mm
08:32 -16.3 °C -16.6 °C 34682.8 hPa NNE 2.6 km/h 23.3 km/h 97 % 0 mm
08:37 -16.3 °C -16.6 °C 34682.8 hPa NNW 10.3 km/h 31.1 km/h 97 % 0 mm
08:42 -16.3 °C -16.6 °C 34682.8 hPa North 18.2 km/h 31.1 km/h 97 % 0 mm
08:47 -16.3 °C -16.6 °C 34682.8 hPa NNW 15.6 km/h 28.5 km/h 97 % 0 mm
08:52 -16.3 °C -16.6 °C 34682.8 hPa NW 12.9 km/h 28.5 km/h 97 % 0 mm
08:57 -16.3 °C -16.6 °C 34682.8 hPa NNW 20.8 km/h 23.3 km/h 97 % 0 mm
09:02 -16.3 °C -16.6 °C 34682.8 hPa NNE 15.6 km/h 23.3 km/h 97 % 0 mm
09:07 -16.4 °C -16.6 °C 34682.8 hPa NNW 10.3 km/h 28.5 km/h 97 % 0 mm
09:12 -16.3 °C -16.6 °C 34682.8 hPa North 5.1 km/h 25.9 km/h 97 % 0 mm
09:17 -16.3 °C -16.6 °C 34682.8 hPa NNW 7.7 km/h 25.9 km/h 97 % 0 mm
09:22 -16.3 °C -16.6 °C 34682.8 hPa North 7.7 km/h 25.9 km/h 97 % 0 mm
09:27 -16.3 °C -16.6 °C 34682.8 hPa NE 5.1 km/h 23.3 km/h 97 % 0 mm
09:32 -16.3 °C -16.6 °C 34682.8 hPa NNE 18.2 km/h 23.3 km/h 97 % 0 mm
09:37 -16.3 °C -16.6 °C 34669.3 hPa NW 2.6 km/h 25.9 km/h 97 % 0 mm
09:42 -16.3 °C -16.6 °C 34669.3 hPa NE 2.6 km/h 25.9 km/h 97 % 0 mm
09:47 -16.3 °C -16.6 °C 34669.3 hPa NNW 5.1 km/h 25.9 km/h 97 % 0 mm
09:52 -16.3 °C -16.5 °C 34669.3 hPa NNW 12.9 km/h 20.8 km/h 97 % 0 mm
09:57 -16.3 °C -16.6 °C 34669.3 hPa NNE 25.9 km/h 25.9 km/h 97 % 0 mm
10:02 -16.3 °C -16.6 °C 34669.3 hPa Calm   20.8 km/h 97 % 0 mm
10:07 -16.3 °C -16.5 °C 34669.3 hPa NE 18.2 km/h 25.9 km/h 97 % 0 mm
10:12 -16.3 °C -16.5 °C 34669.3 hPa NE 20.8 km/h 33.6 km/h 97 % 0 mm
10:17 -16.3 °C -16.5 °C 34659.1 hPa North 28.5 km/h 33.6 km/h 97 % 0 mm
10:22 -16.3 °C -16.5 °C 34659.1 hPa NE 10.3 km/h 33.6 km/h 97 % 0 mm
10:27 -16.3 °C -16.5 °C 34659.1 hPa NNW 15.6 km/h 31.1 km/h 97 % 0 mm
10:32 -16.3 °C -16.5 °C 34659.1 hPa NNE 15.6 km/h 31.1 km/h 97 % 0 mm
10:37 -16.3 °C -16.5 °C 34659.1 hPa North 15.6 km/h 28.5 km/h 97 % 0 mm
10:42 -16.3 °C -16.5 °C 34659.1 hPa Calm   31.1 km/h 97 % 0 mm
10:47 -16.3 °C -16.5 °C 34659.1 hPa NNW 7.7 km/h 31.1 km/h 97 % 0 mm
10:52 -16.3 °C -16.5 °C 34659.1 hPa NE 7.7 km/h 28.5 km/h 97 % 0 mm
10:57 -16.3 °C -16.5 °C 34659.1 hPa NE 5.1 km/h 18.2 km/h 97 % 0 mm
11:02 -16.3 °C -16.5 °C 34659.1 hPa North 10.3 km/h 20.8 km/h 97 % 0 mm
11:07 -16.2 °C -16.4 °C 34659.1 hPa NE 12.9 km/h 20.8 km/h 97 % 0 mm
11:12 -16.2 °C -16.4 °C 34659.1 hPa WNW 2.6 km/h 20.8 km/h 97 % 0 mm
11:17 -16.2 °C -16.4 °C 34659.1 hPa NNE 2.6 km/h 18.2 km/h 97 % 0 mm
11:22 -16.2 °C -16.4 °C 34645.6 hPa North 7.7 km/h 18.2 km/h 97 % 0 mm
11:27 -16.2 °C -16.4 °C 34659.1 hPa NW 7.7 km/h 18.2 km/h 97 % 0 mm
11:32 -16.1 °C -16.3 °C 34645.6 hPa NNW 7.7 km/h 18.2 km/h 97 % 0 mm
11:37 -16.1 °C -16.3 °C 34645.6 hPa Calm   18.2 km/h 97 % 0 mm
11:42 -16 °C -16.2 °C 34645.6 hPa NE 7.7 km/h 18.2 km/h 97 % 0 mm
11:47 -16 °C -16.2 °C 34645.6 hPa NNW 12.9 km/h 20.8 km/h 97 % 0 mm
11:52 -16 °C -16.3 °C 34645.6 hPa NNW 7.7 km/h 20.8 km/h 96 % 0 mm
11:57 -15.9 °C -16.3 °C 34645.6 hPa NNE 10.3 km/h 20.8 km/h 96 % 0 mm
12:02 -15.9 °C -16.3 °C 34645.6 hPa NNE 12.9 km/h 20.8 km/h 95 % 0 mm
12:07 -15.8 °C -16.2 °C 34645.6 hPa North 12.9 km/h 23.3 km/h 95 % 0 mm
12:12 -15.8 °C -16.3 °C 34645.6 hPa NNE 15.6 km/h 23.3 km/h 94 % 0 mm
12:17 -15.8 °C -16.3 °C 34635.4 hPa North 10.3 km/h 20.8 km/h 94 % 0 mm
12:22 -15.7 °C -16.4 °C 34635.4 hPa North 10.3 km/h 23.3 km/h 92 % 0 mm
12:27 -15.7 °C -16.3 °C 34635.4 hPa NNE 7.7 km/h 23.3 km/h 92 % 0 mm
12:32 -15.6 °C -16.3 °C 34635.4 hPa NE 7.7 km/h 23.3 km/h 91 % 0 mm
12:37 -15.6 °C -16.4 °C 34625.2 hPa NNW 15.6 km/h 23.3 km/h 90 % 0 mm
12:47 -15.6 °C -16.6 °C 34625.2 hPa NNW 7.7 km/h 28.5 km/h 88 % 0 mm
12:52 -15.5 °C -16.6 °C 34625.2 hPa NNE 18.2 km/h 28.5 km/h 87 % 0 mm
12:57 -15.4 °C -16.6 °C 34611.7 hPa NNE 12.9 km/h 25.9 km/h 86 % 0 mm
13:02 -15.4 °C -16.7 °C 34611.7 hPa NNE 10.3 km/h 25.9 km/h 85 % 0 mm
13:07 -15.3 °C -16.7 °C 34611.7 hPa North 18.2 km/h 25.9 km/h 84 % 0 mm
13:12 -15.2 °C -16.5 °C 34611.7 hPa NNW 10.3 km/h 20.8 km/h 85 % 0 mm
13:17 -15.2 °C -16.6 °C 34611.7 hPa NNE 18.2 km/h 20.8 km/h 84 % 0 mm
13:22 -15.2 °C -16.7 °C 34611.7 hPa NNE 15.6 km/h 23.3 km/h 83 % 0 mm
13:27 -15.2 °C -16.7 °C 34611.7 hPa NNE 15.6 km/h 25.9 km/h 82 % 0 mm
13:32 -15.1 °C -16.7 °C 34601.5 hPa NW 5.1 km/h 25.9 km/h 82 % 0 mm
13:37 -14.9 °C -16.4 °C 34601.5 hPa NNW 15.6 km/h 25.9 km/h 83 % 0 mm
13:42 -15.1 °C -16.6 °C 34601.5 hPa North 5.1 km/h 25.9 km/h 82 % 0 mm
13:47 -15.1 °C -16.6 °C 34601.5 hPa NE 5.1 km/h 25.9 km/h 82 % 0 mm
13:52 -15 °C -16.6 °C 34601.5 hPa NNE 5.1 km/h 25.9 km/h 82 % 0 mm
13:57 -14.8 °C -16.3 °C 34601.5 hPa NW 12.9 km/h 23.3 km/h 82 % 0 mm
14:02 -14.8 °C -16.4 °C 34601.5 hPa North 18.2 km/h 20.8 km/h 81 % 0 mm
14:07 -14.9 °C -16.7 °C 34601.5 hPa North 18.2 km/h 20.8 km/h 79 % 0 mm
14:12 -14.9 °C -16.7 °C 34591.4 hPa NNE 12.9 km/h 31.1 km/h 80 % 0 mm
14:17 -14.7 °C -16.3 °C 34591.4 hPa North 2.6 km/h 31.1 km/h 81 % 0 mm
14:22 -14.6 °C -16.8 °C 34591.4 hPa NNE 10.3 km/h 23.3 km/h 75 % 0 mm
14:27 -14.6 °C -16.7 °C 34591.4 hPa NE 15.6 km/h 25.9 km/h 77 % 0 mm
14:32 -14.5 °C -16.6 °C 34591.4 hPa NNW 15.6 km/h 25.9 km/h 77 % 0 mm
14:37 -14.4 °C -16.3 °C 34591.4 hPa NNW 10.3 km/h 25.9 km/h 79 % 0 mm
14:42 -14.5 °C -16.6 °C 34577.8 hPa NNW 10.3 km/h 25.9 km/h 77 % 0 mm
14:47 -14.5 °C -16.6 °C 34577.8 hPa North 25.9 km/h 25.9 km/h 77 % 0 mm
14:52 -14.4 °C -16.6 °C 34577.8 hPa NNW 10.3 km/h 28.5 km/h 76 % 0 mm
14:57 -14.3 °C -16.6 °C 34577.8 hPa NNW 12.9 km/h 28.5 km/h 75 % 0 mm
15:02 -14.2 °C -16.9 °C 34577.8 hPa NE 10.3 km/h 28.5 km/h 71 % 0 mm
15:07 -14.2 °C -16.6 °C 34577.8 hPa NNE 20.8 km/h 23.3 km/h 74 % 0 mm
15:12 -14.3 °C -16.8 °C 34577.8 hPa NNE 7.7 km/h 28.5 km/h 73 % 0 mm
15:17 -14.3 °C -16.7 °C 34567.7 hPa NNE 15.6 km/h 28.5 km/h 74 % 0 mm
15:22 -14.4 °C -16.9 °C 34567.7 hPa ENE 7.7 km/h 36.2 km/h 73 % 0 mm
15:27 -14.4 °C -16.9 °C 34567.7 hPa NNE 5.1 km/h 36.2 km/h 73 % 0 mm
15:32 -14.2 °C -16.8 °C 34567.7 hPa North 10.3 km/h 36.2 km/h 72 % 0 mm
15:37 -14.2 °C -17.2 °C 34567.7 hPa NNE 12.9 km/h 20.8 km/h 69 % 0 mm
15:42 -14.2 °C -16.9 °C 34567.7 hPa ENE 12.9 km/h 25.9 km/h 71 % 0 mm
15:47 -14.3 °C -17.1 °C 34567.7 hPa NNE 18.2 km/h 36.2 km/h 70 % 0 mm
15:52 -14.3 °C -17.1 °C 34554.1 hPa NE 12.9 km/h 36.2 km/h 71 % 0 mm
15:57 -14.3 °C -17.1 °C 34554.1 hPa ENE 7.7 km/h 36.2 km/h 71 % 0 mm
16:02 -14.2 °C -17.1 °C 34554.1 hPa NNE 10.3 km/h 28.5 km/h 70 % 0 mm
16:07 -14.2 °C -17.2 °C 34554.1 hPa NNE 7.7 km/h 23.3 km/h 69 % 0 mm
16:12 -14.2 °C -17.2 °C 34554.1 hPa NE 18.2 km/h 28.5 km/h 69 % 0 mm
16:17 -14.3 °C -17.4 °C 34554.1 hPa NE 25.9 km/h 28.5 km/h 67 % 0 mm
16:22 -14.2 °C -17.3 °C 34554.1 hPa NNE 10.3 km/h 31.1 km/h 68 % 0 mm
16:27 -14.2 °C -17 °C 34554.1 hPa NNE 20.8 km/h 31.1 km/h 70 % 0 mm
16:32 -14.1 °C -16.9 °C 34554.1 hPa NE 12.9 km/h 31.1 km/h 70 % 0 mm
16:37 -14.2 °C -16.9 °C 34554.1 hPa NNW 10.3 km/h 28.5 km/h 71 % 0 mm
16:42 -14.3 °C -17.1 °C 34544 hPa NNE 15.6 km/h 31.1 km/h 70 % 0 mm
16:47 -14.3 °C -17.1 °C 34544 hPa NNE 10.3 km/h 31.1 km/h 70 % 0 mm
16:52 -14.3 °C -17.1 °C 34544 hPa East 7.7 km/h 31.1 km/h 70 % 0 mm
16:57 -14.2 °C -16.9 °C 34544 hPa NNE 10.3 km/h 31.1 km/h 71 % 0 mm
17:02 -14.3 °C -16.9 °C 34544 hPa NW 7.7 km/h 23.3 km/h 72 % 0 mm
17:07 -14.4 °C -16.6 °C 34544 hPa ENE 15.6 km/h 33.6 km/h 76 % 0 mm
17:12 -14.6 °C -16.6 °C 34544 hPa East 15.6 km/h 33.6 km/h 77 % 0 mm
17:17 -14.6 °C -16.7 °C 34544 hPa NNE 5.1 km/h 33.6 km/h 77 % 0 mm
17:22 -14.7 °C -16.6 °C 34544 hPa East 10.3 km/h 23.3 km/h 78 % 0 mm
17:32 -14.8 °C -16.8 °C 34544 hPa NE 10.3 km/h 20.8 km/h 78 % 0 mm
17:42 -14.9 °C -16.7 °C 34544 hPa ENE 15.6 km/h 18.2 km/h 80 % 0 mm
17:47 -15.1 °C -16.7 °C 34544 hPa ENE 7.7 km/h 20.8 km/h 81 % 0 mm
17:52 -15.2 °C -16.7 °C 34544 hPa NE 7.7 km/h 20.8 km/h 82 % 0 mm
17:57 -15.2 °C -16.7 °C 34544 hPa ENE 7.7 km/h 23.3 km/h 83 % 0 mm
18:02 -15.3 °C -16.8 °C 34544 hPa NE 5.1 km/h 28.5 km/h 83 % 0 mm
18:07 -15.4 °C -16.8 °C 34544 hPa ENE 7.7 km/h 28.5 km/h 84 % 0 mm
18:12 -15.6 °C -16.9 °C 34544 hPa NNE 7.7 km/h 28.5 km/h 84 % 0 mm
18:17 -15.7 °C -17.1 °C 34544 hPa NE 12.9 km/h 23.3 km/h 84 % 0 mm
18:22 -15.7 °C -17.1 °C 34544 hPa ENE 5.1 km/h 23.3 km/h 84 % 0 mm
18:27 -15.8 °C -17.2 °C 34544 hPa NNE 2.6 km/h 23.3 km/h 84 % 0 mm
18:32 -15.9 °C -17.3 °C 34544 hPa NE 5.1 km/h 23.3 km/h 84 % 0 mm
18:37 -16 °C -17.3 °C 34544 hPa Calm   18.2 km/h 84 % 0 mm
18:42 -16.1 °C -17.3 °C 34544 hPa NE 2.6 km/h 18.2 km/h 85 % 0 mm
18:47 -16.1 °C -17.4 °C 34544 hPa NE 2.6 km/h 15.6 km/h 85 % 0 mm
18:52 -16.2 °C -17.4 °C 34544 hPa East 2.6 km/h 12.9 km/h 85 % 0 mm
18:57 -16.2 °C -17.5 °C 34544 hPa Calm   10.3 km/h 85 % 0 mm
19:02 -16.3 °C -17.6 °C 34544 hPa ENE 2.6 km/h 10.3 km/h 85 % 0 mm
19:07 -16.3 °C -17.6 °C 34544 hPa Calm   10.3 km/h 85 % 0 mm
19:12 -16.3 °C -17.6 °C 34544 hPa Calm   15.6 km/h 85 % 0 mm
19:17 -16.4 °C -17.6 °C 34544 hPa Calm   15.6 km/h 86 % 0 mm
19:22 -16.4 °C -17.6 °C 34554.1 hPa NNE 2.6 km/h 15.6 km/h 86 % 0 mm
19:27 -16.4 °C -17.6 °C 34554.1 hPa NE 7.7 km/h 10.3 km/h 86 % 0 mm
19:32 -16.4 °C -17.7 °C 34554.1 hPa NNE 10.3 km/h 12.9 km/h 85 % 0 mm
19:37 -16.4 °C -17.7 °C 34554.1 hPa North 2.6 km/h 12.9 km/h 85 % 0 mm
19:42 -16.4 °C -17.6 °C 34554.1 hPa NE 7.7 km/h 12.9 km/h 86 % 0 mm
19:47 -16.4 °C -17.6 °C 34554.1 hPa NNE 7.7 km/h 12.9 km/h 86 % 0 mm
19:52 -16.5 °C -17.7 °C 34544 hPa NE 7.7 km/h 10.3 km/h 86 % 0 mm
19:57 -16.4 °C -17.6 °C 34544 hPa NE 12.9 km/h 15.6 km/h 86 % 0 mm
20:02 -16.4 °C -17.7 °C 34544 hPa NE 5.1 km/h 15.6 km/h 85 % 0 mm
20:07 -16.4 °C -17.7 °C 34544 hPa NE 10.3 km/h 18.2 km/h 85 % 0 mm
20:12 -16.4 °C -17.7 °C 34544 hPa NNE 12.9 km/h 18.2 km/h 85 % 0 mm
20:17 -16.4 °C -17.7 °C 34544 hPa NE 7.7 km/h 18.2 km/h 85 % 0 mm
20:22 -16.5 °C -17.8 °C 34544 hPa Calm   18.2 km/h 85 % 0 mm
20:27 -16.6 °C -17.7 °C 34544 hPa NNE 2.6 km/h 15.6 km/h 86 % 0 mm
20:32 -16.6 °C -17.8 °C 34533.8 hPa North 2.6 km/h 10.3 km/h 86 % 0 mm
20:37 -16.7 °C -17.7 °C 34533.8 hPa Calm   7.7 km/h 87 % 0 mm
20:42 -16.7 °C -17.7 °C 34533.8 hPa NNE 7.7 km/h 10.3 km/h 87 % 0 mm
20:47 -16.6 °C -17.7 °C 34533.8 hPa NNE 10.3 km/h 10.3 km/h 87 % 0 mm
20:52 -16.5 °C -17.7 °C 34533.8 hPa NNE 10.3 km/h 18.2 km/h 86 % 0 mm
20:57 -16.4 °C -17.7 °C 34533.8 hPa NNE 18.2 km/h 23.3 km/h 85 % 0 mm
21:02 -16.4 °C -17.7 °C 34533.8 hPa NNE 12.9 km/h 23.3 km/h 85 % 0 mm
21:07 -16.4 °C -17.7 °C 34533.8 hPa NNE 15.6 km/h 23.3 km/h 85 % 0 mm
21:12 -16.4 °C -17.7 °C 34533.8 hPa NNE 5.1 km/h 23.3 km/h 85 % 0 mm
21:17 -16.5 °C -17.8 °C 34533.8 hPa NNE 10.3 km/h 23.3 km/h 85 % 0 mm
21:22 -16.5 °C -17.8 °C 34520.3 hPa NNE 12.9 km/h 23.3 km/h 85 % 0 mm
21:27 -16.6 °C -17.8 °C 34533.8 hPa NNE 10.3 km/h 20.8 km/h 85 % 0 mm
21:32 -16.6 °C -17.8 °C 34520.3 hPa NE 10.3 km/h 20.8 km/h 85 % 0 mm
21:37 -16.6 °C -17.8 °C 34520.3 hPa NE 12.9 km/h 20.8 km/h 85 % 0 mm
21:42 -16.6 °C -17.9 °C 34520.3 hPa North 5.1 km/h 18.2 km/h 85 % 0 mm
21:47 -16.7 °C -17.8 °C 34520.3 hPa NE 7.7 km/h 18.2 km/h 86 % 0 mm
21:52 -16.7 °C -17.9 °C 34520.3 hPa NNE 5.1 km/h 18.2 km/h 86 % 0 mm
21:57 -16.8 °C -17.9 °C 34520.3 hPa NNE 5.1 km/h 15.6 km/h 86 % 0 mm
22:02 -16.8 °C -18 °C 34520.3 hPa NNE 2.6 km/h 12.9 km/h 86 % 0 mm
22:07 -16.9 °C -17.9 °C 34520.3 hPa NNE 5.1 km/h 15.6 km/h 87 % 0 mm
22:12 -16.9 °C -18 °C 34510.1 hPa NNE 10.3 km/h 15.6 km/h 87 % 0 mm
22:17 -17 °C -18.1 °C 34520.3 hPa NNW 5.1 km/h 12.9 km/h 87 % 0 mm
22:22 -17 °C -18 °C 34510.1 hPa North 12.9 km/h 15.6 km/h 88 % 0 mm
22:27 -17 °C -18.1 °C 34510.1 hPa Calm   20.8 km/h 87 % 0 mm
22:32 -17.1 °C -18.1 °C 34510.1 hPa NNE 10.3 km/h 20.8 km/h 87 % 0 mm
22:37 -17.1 °C -18.1 °C 34510.1 hPa NNE 2.6 km/h 20.8 km/h 88 % 0 mm
22:42 -17.2 °C -18.2 °C 34510.1 hPa North 2.6 km/h 18.2 km/h 88 % 0 mm
22:47 -17.2 °C -18.2 °C 34510.1 hPa North 5.1 km/h 12.9 km/h 88 % 0 mm
22:52 -17.3 °C -18.3 °C 34510.1 hPa NE 2.6 km/h 20.8 km/h 88 % 0 mm
22:57 -17.3 °C -18.3 °C 34510.1 hPa North 2.6 km/h 20.8 km/h 88 % 0 mm
23:02 -17.4 °C -18.3 °C 34510.1 hPa NNE 7.7 km/h 20.8 km/h 89 % 0 mm
23:07 -17.4 °C -18.3 °C 34510.1 hPa Calm   12.9 km/h 89 % 0 mm
23:12 -17.4 °C -18.3 °C 34510.1 hPa North 5.1 km/h 10.3 km/h 89 % 0 mm
23:17 -17.4 °C -18.3 °C 34510.1 hPa NE 5.1 km/h 10.3 km/h 89 % 0 mm
23:22 -17.5 °C -18.4 °C 34510.1 hPa ENE 2.6 km/h 10.3 km/h 89 % 0 mm
23:27 -17.5 °C -18.4 °C 34510.1 hPa NNW 7.7 km/h 10.3 km/h 89 % 0 mm
23:32 -17.6 °C -18.4 °C 34496.6 hPa NNW 7.7 km/h 10.3 km/h 89 % 0 mm
23:37 -17.6 °C -18.4 °C 34496.6 hPa NE 5.1 km/h 10.3 km/h 89 % 0 mm
23:42 -17.6 °C -18.4 °C 34510.1 hPa Calm   7.7 km/h 90 % 0 mm
23:47 -17.6 °C -18.5 °C 34510.1 hPa North 2.6 km/h 7.7 km/h 89 % 0 mm
23:57 -17.6 °C -18.5 °C 34496.6 hPa North 2.6 km/h 10.3 km/h 89 % 0 mm
Meteo18
Compliments of Weather Underground - 4 mb

Script developed by  Jim McMurry - jmcmurry@mwt.net Adapted for the template by  Wim van der Kuil - Leuven-Template.eu

You find our weather info also at:

European Weather Network

Weather Underground

Equipment we use:

Weather-station
Davis Vue

Weather-program
Meteobridge

Weather-server
Raspberry PI 2 B+

Provider
1 and 1

Davis Vue

Meteobridge

Raspberry PI 2 B+

1 and 1